Lid_Strength_Index
-1 -0 -0 3 11 11 13 12 9 10 10 7 5 7 8 7 9 11 1 0 -0 -0 -1 -1 -2 -1 -2 -2 -2 -2 -1 -1 -1 -1 -2 -1 -1 -1 -1 -1 -1 -1 -1 -2 -2 -2 -2 -2 -2
-1 0 1 6 12 14 13 10 11 9 8 6 6 6 7 9 5 4 3 0 -1 -0 -1 -1 -1 -2 -2 -2 -2 -2 -2 -1 -1 -1 -1 -1 -1 -1 -1 -2 -2 -1 -2 -2 -2 -2 -2 -2 -2
0 1 6 9 11 14 13 10 9 8 7 7 8 6 7 8 4 3 1 -0 -1 -1 -1 -1 -2 -2 -2 -2 -2 -1 -2 -1 -1 -1 -1 -1 -1 -1 -1 -2 -2 -2 -2 -2 -2 -2 -2 -2 -2
2 4 5 11 12 11 10 9 8 8 7 6 6 9 5 3 3 2 0 -0 -0 -1 -1 -1 -2 -1 -2 -2 -1 -1 -1 -1 -1 -1 -1 -1 -1 -2 -2 -2 -2 -2 -1 -2 -2 -2 -1 -2 -2
2 5 11 12 11 10 8 7 7 8 7 7 6 9 7 3 1 1 1 0 0 -0 -1 -1 -2 -1 -2 -2 -2 -1 -1 -1 -1 -1 -1 -1 -2 -1 -2 -2 -2 -2 -2 -2 -2 -2 -2 -2 -1
6 6 11 13 12 9 8 6 7 7 7 7 7 7 7 2 2 1 0 0 -0 -0 -1 -1 -1 -2 -2 -2 -1 -1 -1 -1 -1 -1 -1 -1 -1 -1 -2 -2 -2 -2 -2 -2 -2 -2 -2 -1 -1
8 9 12 12 11 10 8 5 7 7 7 7 5 8 6 4 2 1 0 -0 -0 -0 -1 -1 -1 -1 -2 -2 -1 -2 -1 -1 -1 -1 -1 -1 -1 -1 -1 -2 -2 -2 -2 -2 -2 -1 -1 -2 -1
6 8 11 11 11 11 7 6 5 6 7 4 4 8 8 4 1 1 0 0 -0 -0 -0 -1 -1 -1 -1 -1 -1 -1 -1 -1 -1 -1 -1 -1 -1 -1 -1 -1 -1 -1 -2 -2 -2 -2 -1 -1 -1
4 10 11 11 11 9 6 7 5 4 6 5 4 5 3 2 1 2 2 2 1 0 0 -1 -1 -1 -1 -1 -1 -1 -1 -1 -1 -1 -1 -1 -1 -1 -1 -1 -1 -2 -1 -2 -2 -2 -1 -1 -1
7 9 10 7 7 8 7 7 6 7 7 7 6 4 3 2 2 3 3 3 2 2 0 -0 -1 -1 -1 -1 -1 -1 -1 -1 -1 -1 -1 -1 -1 -1 -1 -1 -1 -1 -1 -1 -2 -1 -1 -1 -2
7 9 8 7 6 6 7 7 5 7 8 6 7 6 4 3 3 3 3 3 2 1 0 -0 -1 -1 -1 -1 -1 -1 -1 -1 -1 -1 -1 -1 -1 -1 -1 -1 -2 -2 -1 -1 -1 -1 -1 -1 -1
9 7 7 6 6 6 7 6 7 6 6 5 4 4 4 4 4 3 3 3 2 2 1 -0 -0 -1 -1 -1 -1 -1 -1 -1 -1 -1 -1 -1 -1 -1 -1 -1 -1 -1 -2 -1 -1 -1 -1 -1 -1
8 7 6 6 6 6 6 7 7 7 5 4 4 4 4 4 4 3 2 2 2 2 1 0 -0 -0 -1 -1 -1 -1 -1 -1 -1 -1 -1 -1 -1 -1 -1 -1 -1 -1 -1 -1 -1 -1 -1 -1 -1
6 7 7 6 6 6 7 7 7 7 5 5 5 5 4 4 4 3 3 3 2 2 1 0 0 -0 -1 -1 -1 -1 -1 -1 -1 -1 -1 -2 -1 -1 -1 -1 -1 -1 -1 -1 -1 -1 -1 -1 -1
6 8 7 7 6 7 6 9 9 6 5 6 6 5 5 4 3 4 3 3 2 1 1 1 0 -1 -0 -1 -1 -1 -1 -1 -1 -1 -2 -1 -2 -2 -1 -1 -0 -1 -2 -1 -1 -1 -1 -1 -1
8 8 10 7 7 7 7 11 8 6 6 7 6 5 5 4 3 3 2 2 1 1 1 0 -0 -0 -0 -0 -1 -1 -1 -1 -1 -1 -1 -1 -2 -2 -1 -0 -1 -1 -1 -1 -1 -0 -0 -0 -0
9 12 10 9 7 7 8 10 8 6 6 7 6 6 5 4 3 2 2 1 1 1 1 0 -0 0 -0 -1 -1 -1 -1 -1 -1 -1 -1 -1 -2 -2 -1 -2 -1 -1 -1 -1 -0 -0 -0 0 -0
11 11 9 9 8 8 9 10 8 7 7 7 6 6 5 5 4 2 2 1 1 0 0 0 0 -0 -0 -0 -1 -1 -1 -1 -1 -1 -1 -1 -1 -1 -1 -1 -1 -1 -0 -0 -0 -0 -0 -0 -0
8 9 9 8 8 9 9 10 9 7 7 7 6 6 5 5 3 2 2 1 1 1 1 0 1 0 0 0 1 1 1 0 -0 -1 -1 -1 -1 -1 -1 -1 -1 -1 -0 -0 -1 -0 0 0 -1
8 9 9 8 8 8 10 10 9 8 7 6 6 6 6 5 4 3 2 2 1 1 1 1 0 0 0 0 0 0 0 0 -0 -1 -1 -1 -1 -2 -1 -1 -0 -1 -0 -0 -0 -0 1 1 -0
8 8 9 9 9 8 9 10 10 8 7 6 5 5 5 5 4 4 3 2 2 2 1 1 0 0 -0 -0 -0 0 -0 -0 0 0 -0 -1 -1 -1 -1 -1 -1 -1 -0 0 -0 -0 0 2 0
9 7 8 9 10 10 9 11 10 9 9 7 6 6 5 4 4 3 3 3 2 2 1 1 0 0 0 -0 0 1 1 2 1 1 -0 -0 -1 -1 -1 -2 -1 -1 -1 -0 -0 -0 0 0 2
8 7 8 9 10 10 11 11 9 9 10 9 7 6 5 4 4 3 3 2 2 1 1 1 0 0 -0 -0 0 1 1 1 0 0 0 -0 -1 -1 -1 -1 -1 -0 -0 -1 -0 -0 0 0 1
8 8 8 8 9 11 11 12 9 9 8 8 6 6 5 4 4 3 2 2 2 1 1 1 1 1 0 0 0 1 1 1 1 1 1 1 0 -0 -1 -1 -1 -1 -0 -0 -0 -1 -0 -0 0
8 9 10 11 11 12 10 12 10 7 7 6 6 5 5 4 4 3 3 3 2 2 2 2 1 1 0 0 0 0 1 1 1 1 1 1 1 1 -0 -1 -0 -0 -0 -0 -1 -0 -0 -0 0
9 9 10 14 12 12 10 11 9 7 6 5 5 5 4 4 3 3 3 2 2 2 2 2 1 1 1 1 1 0 0 1 1 0 0 1 0 0 -1 -1 -0 -0 -0 -0 -1 -0 -0 -0 0
9 8 9 11 11 11 10 9 8 7 7 6 6 5 5 5 4 4 3 2 2 2 2 1 1 1 1 1 0 0 0 0 1 0 0 0 -0 -0 -0 -1 -0 -0 -0 -0 -0 -0 0 -0 -0
8 9 10 9 13 14 11 12 10 9 8 7 6 6 5 5 4 4 3 2 2 2 1 1 1 1 1 1 0 1 0 0 0 0 0 -0 -0 -0 -1 -0 -0 -0 -0 -0 -0 0 -0 0 0
8 9 10 10 10 12 13 11 7 8 7 7 6 6 5 5 4 4 3 2 2 2 1 1 1 1 1 1 1 1 1 0 0 0 0 0 -0 -0 -0 -0 -0 -0 0 0 0 0 0 0 0
8 9 9 9 11 10 10 10 7 6 6 6 6 6 5 5 4 4 3 3 3 2 2 2 1 1 1 1 1 1 1 0 0 1 0 -0 0 -0 -0 -0 -0 -0 0 0 1 1 1 1 1